RH
100 98 99 99 100 100 97 98 100 97 79 72 35 39 40 40 44 30 18 18 18 17 20 48 68 71 78 76 60 62 73 87 66 25 24 27 30 32 31 27 23 19 18 14 13 12 13 12 10 11 12 10 9 9
100 100 99 99 100 100 99 99 100 100 92 78 53 40 41 41 38 64 41 21 20 25 46 44 51 71 69 74 74 70 57 63 72 81 76 44 19 19 23 26 27 27 26 26 25 24 23 21 20 17 16 17 17 17
100 100 100 100 99 98 98 99 100 100 100 100 91 88 80 73 72 42 74 39 27 21 24 46 56 62 72 70 74 70 70 56 48 69 67 70 72 70 61 59 53 43 30 22 21 20 20 19 17 16 15 17 21 25
100 100 100 100 96 92 96 100 99 100 100 99 99 98 99 99 98 97 60 92 52 36 42 58 86 73 79 74 68 78 70 70 64 49 59 75 75 73 73 74 75 69 64 65 67 62 58 58 60 66 68 66 65 65
100 100 100 100 100 97 95 95 99 99 100 99 99 100 100 100 99 100 99 99 94 78 66 69 96 99 97 83 80 82 87 84 70 64 52 44 47 57 77 74 64 53 49 47 49 45 38 39 40 40 41 41 44 46
100 100 100 100 100 100 99 99 100 100 100 100 98 100 100 99 98 99 95 96 97 97 97 95 95 100 100 100 96 77 79 79 86 79 67 67 59 47 47 55 55 50 49 47 50 51 52 51 50 51 54 57 57 56
95 100 100 100 100 100 99 97 95 100 100 100 100 99 100 100 98 96 94 90 91 93 96 92 94 100 100 100 100 96 87 80 71 79 86 82 73 58 59 71 72 67 67 67 65 64 62 59 60 66 67 60 55 52
36 90 99 100 100 100 100 99 100 100 100 100 100 100 99 97 98 99 99 95 87 89 89 83 89 97 97 96 98 97 92 82 76 74 77 82 80 76 72 90 81 81 82 81 79 77 76 75 73 71 70 69 70 70
4 52 82 95 100 100 100 100 100 100 100 98 100 100 98 91 93 100 99 99 91 82 76 75 87 97 97 97 93 94 96 87 78 77 76 71 70 76 92 90 87 87 84 82 78 76 76 74 73 72 71 70 67 65
3 5 21 29 88 100 100 100 100 100 100 100 100 100 89 82 100 100 96 94 85 76 66 74 83 90 94 94 94 92 90 92 80 81 78 63 61 91 95 94 94 90 83 78 76 76 72 68 63 59 55 53 56 60
4 4 3 3 19 64 99 100 100 100 100 100 99 93 90 94 100 100 93 75 71 59 63 84 92 90 94 89 82 82 76 74 67 71 77 67 74 92 96 92 82 78 78 75 70 65 59 54 49 46 46 49 53 58
4 4 4 3 3 5 35 94 100 100 100 100 100 100 100 100 100 100 78 63 52 57 57 79 93 92 90 89 85 74 73 68 57 59 59 54 67 71 73 70 67 65 63 60 56 51 45 41 39 40 41 45 50 55
4 3 4 4 3 3 3 13 76 99 100 100 100 100 100 100 100 83 57 44 47 60 75 91 92 84 78 79 75 74 68 63 62 54 52 60 61 54 53 53 55 55 52 48 43 40 37 36 38 42 45 48 54 62
4 4 3 4 4 4 3 3 4 26 88 100 100 100 100 98 86 58 53 55 60 73 74 84 96 100 90 86 71 64 58 56 53 53 58 59 52 53 54 54 52 50 46 42 39 40 44 46 48 49 53 57 59 61
5 4 4 3 3 4 4 4 4 4 8 75 100 100 98 98 75 69 63 59 66 80 83 92 100 100 98 81 70 64 55 47 40 48 58 40 49 52 52 51 51 47 36 31 40 49 51 48 51 59 63 66 67 73
7 5 5 4 4 4 4 4 4 4 4 7 58 94 89 78 77 74 64 67 71 83 100 100 100 99 94 89 70 57 45 33 38 44 38 43 46 45 56 58 42 32 34 46 56 53 46 48 59 68 76 78 78 76
8 6 6 6 5 5 4 4 4 4 4 3 3 18 86 86 80 90 100 95 93 100 100 100 100 100 99 86 60 51 42 39 31 20 20 25 33 41 51 52 38 40 51 57 53 54 52 37 43 60 70 77 75 79
8 8 8 7 7 6 6 5 5 4 3 3 3 3 5 32 70 77 85 80 100 100 100 100 100 100 87 70 60 30 39 47 39 40 28 22 26 51 58 53 55 52 56 57 56 47 41 46 54 58 61 65 67 66
10 8 8 8 8 7 7 6 5 4 3 3 3 3 3 3 11 44 78 79 74 76 81 92 98 85 73 63 48 29 37 42 44 34 29 32 51 67 71 79 78 58 48 65 63 56 57 52 52 56 59 59 57 54
10 9 9 8 8 7 7 7 5 4 3 3 3 3 3 3 3 4 10 27 46 40 32 36 39 38 26 16 10 7 9 43 62 36 51 79 72 89 82 84 79 65 72 76 75 68 65 59 58 52 47 43 40 41
10 16 20 14 8 7 6 6 6 5 4 3 4 4 4 3 3 3 3 3 3 4 10 19 17 5 4 3 6 13 21 77 71 59 68 68 97 96 80 84 79 77 78 78 78 75 65 57 51 47 42 39 38 40
18 18 17 12 8 7 6 6 5 5 6 5 5 5 5 4 4 4 4 4 3 3 3 3 3 3 3 3 7 20 45 98 100 100 97 85 92 82 76 87 85 89 92 91 84 72 62 58 51 45 42 40 44 44
23 20 18 16 13 8 6 6 6 5 5 5 5 6 6 5 5 5 6 5 3 3 3 3 3 3 3 4 4 10 72 77 90 100 100 96 76 74 96 94 89 94 100 95 82 71 58 55 51 45 45 47 48 44
69 50 40 28 22 12 7 6 6 5 5 5 5 5 5 5 6 7 6 6 6 5 5 4 3 3 3 4 6 12 50 75 75 100 100 100 98 99 99 100 99 100 100 95 86 72 66 57 53 50 50 50 46 36
100 100 93 63 44 27 14 9 8 11 45 82 100 96 76 99 93 60 16 6 6 8 8 8 6 4 4 19 74 65 74 64 93 100 100 100 97 100 100 100 100 100 95 79 75 71 63 58 56 54 52 37 26 14
100 100 93 83 64 70 83 88 65 90 100 100 75 62 76 97 80 37 15 16 12 9 8 8 6 9 55 99 100 100 100 100 100 97 100 100 100 100 100 100 100 100 91 73 68 62 58 57 55 45 28 17 11 9
100 100 100 100 100 97 90 74 76 84 91 95 67 60 89 92 83 82 30 13 7 40 84 100 96 97 100 100 100 99 86 94 100 100 100 100 100 100 100 99 99 94 85 77 69 62 57 50 33 18 12 10 9 11
100 100 100 100 100 100 100 100 100 89 74 65 75 80 98 98 88 77 92 100 94 90 94 99 89 79 68 74 80 88 100 100 100 100 100 100 100 98 97 97 88 81 73 67 61 48 31 20 14 11 9 10 14 33
100 100 100 100 100 100 100 100 100 100 100 100 99 80 77 76 70 68 74 84 79 78 77 79 79 86 85 95 100 100 100 100 100 100 100 100 100 98 89 81 72 67 59 45 29 21 16 13 11 9 18 32 38 38
100 100 100 100 100 100 100 100 100 100 99 91 88 87 76 62 62 77 79 76 85 99 100 100 100 100 100 100 100 100 100 100 100 100 100 95 85 78 72 63 49 35 26 20 17 16 13 10 14 37 51 54 49 63
79 86 100 100 100 100 100 100 100 100 100 100 100 100 98 95 89 93 98 97 96 96 99 100 100 100 100 100 100 100 100 94 86 82 80 74 62 48 37 29 22 18 16 15 12 11 15 31 59 59 49 42 60 84
45 39 40 58 94 100 100 100 100 100 100 100 100 100 100 100 100 100 100 100 100 100 100 100 100 100 100 100 100 95 87 78 68 55 44 37 30 24 18 16 15 13 11 12 18 30 57 68 52 38 34 64 91 85
35 32 28 27 32 44 65 91 99 100 100 100 100 100 100 100 100 99 100 100 99 98 96 91 86 81 74 64 56 49 42 38 33 28 23 19 17 15 13 12 13 16 27 43 65 78 65 40 34 60 82 85 80 44
Wind_Speed
60 63 52 44 42 45 46 46 44 45 46 42 37 34 31 28 25 24 22 18 17 13 10 11 11 10 7 5 3 3 4 4 3 2 1 1 1 2 3 3 4 4 5 6 7 7 9 10 12 12 13 15 17 19
58 59 57 52 46 45 45 44 43 42 44 43 42 39 36 34 30 28 27 22 20 18 14 13 13 12 10 8 6 4 5 5 5 5 4 4 6 5 5 5 5 6 7 7 8 10 12 14 15 17 18 20 22 24
59 60 60 55 53 46 46 45 42 40 40 42 42 42 39 38 37 32 32 28 24 22 22 18 16 14 12 11 10 8 7 6 7 8 8 8 7 7 7 7 8 9 11 13 13 15 17 17 19 21 23 24 26 28
60 63 62 58 57 52 49 48 45 42 40 38 38 38 39 37 35 36 38 34 31 28 26 24 19 17 16 15 13 11 9 8 9 12 12 12 13 12 12 12 13 14 14 16 16 18 18 19 20 22 24 26 28 29
67 63 65 57 57 57 53 49 48 45 43 42 40 38 35 34 35 33 35 38 36 34 30 27 24 19 16 16 14 15 13 12 11 11 13 15 16 16 17 17 20 21 20 19 19 21 21 21 21 22 24 25 27 29
70 71 66 68 61 60 58 56 52 49 48 46 44 42 41 41 39 36 33 33 33 36 35 33 28 27 22 22 22 21 21 19 17 15 16 15 16 16 15 17 23 20 19 18 19 20 20 22 23 25 27 29 31 33
63 70 72 67 69 62 62 61 58 55 53 50 49 49 46 44 42 40 37 33 34 33 34 33 30 28 27 25 25 26 25 24 24 21 19 19 19 18 15 16 25 24 23 23 21 22 23 24 26 30 32 33 34 37
55 58 63 67 70 71 62 64 62 60 58 56 54 51 47 45 45 41 40 38 38 37 36 38 33 30 31 32 31 29 29 28 25 25 24 26 25 21 16 25 27 26 27 28 29 30 30 31 32 34 35 37 39 42
55 55 57 59 61 69 75 63 62 63 64 62 57 53 51 51 47 44 44 42 41 42 43 41 35 35 35 34 33 32 32 31 29 27 27 30 28 24 26 28 29 30 32 33 35 35 35 36 38 39 40 42 44 46
55 56 56 56 58 60 72 72 61 62 65 62 59 55 58 57 49 48 50 49 47 46 48 43 37 38 38 38 37 37 37 37 36 32 33 32 27 27 32 33 35 36 38 39 39 39 40 41 42 43 45 47 48 50
53 56 57 57 56 57 57 74 67 62 62 58 60 64 62 57 50 47 52 54 52 49 48 43 42 39 40 41 39 40 40 40 42 41 39 39 32 32 33 36 39 40 40 42 42 42 41 43 44 45 46 48 50 51
51 54 56 57 57 56 54 58 61 64 61 60 55 54 53 55 49 47 57 60 59 56 53 44 36 38 39 40 42 42 41 43 45 43 42 42 36 35 37 39 40 41 41 42 43 43 44 44 45 46 47 48 49 50
52 52 54 57 58 58 57 57 55 60 52 59 62 52 56 59 57 56 63 66 64 53 45 35 37 41 42 43 46 45 47 47 46 49 48 40 40 46 47 44 41 40 39 39 41 41 42 43 43 44 46 47 48 50
52 53 53 54 57 59 60 60 61 60 57 52 59 59 59 65 63 56 56 54 49 41 37 37 39 41 39 38 43 45 48 49 51 47 35 37 41 39 39 40 42 43 43 42 41 41 41 42 43 44 45 46 45 45
49 52 53 53 55 58 60 62 63 65 65 64 70 70 68 66 57 55 52 52 51 47 41 39 41 41 39 43 43 43 44 48 47 34 35 39 36 37 38 39 39 39 39 39 39 39 39 40 42 42 42 43 43 43
47 49 49 51 53 55 58 61 64 67 71 72 70 70 70 61 56 57 50 55 57 51 48 45 45 46 47 45 45 45 45 44 39 40 43 40 39 38 37 38 39 38 37 37 37 37 39 41 42 44 45 45 46 48
44 45 49 51 53 54 56 59 62 66 69 71 65 64 64 62 60 54 57 54 58 59 54 52 52 51 52 51 50 49 44 41 43 44 46 46 45 44 42 41 39 36 35 36 39 40 39 43 46 48 49 51 51 53
41 43 46 50 52 53 54 57 61 64 64 61 62 62 65 64 62 66 67 65 63 62 59 57 59 60 57 52 49 49 50 48 46 47 47 46 46 46 43 40 39 38 38 40 38 40 43 45 47 48 49 50 51 54
41 42 44 46 50 53 54 56 57 58 56 57 57 60 64 64 66 69 72 70 73 74 76 76 76 72 66 61 58 58 57 54 51 49 49 48 43 42 40 39 38 40 41 41 43 46 47 47 48 50 52 54 56 58
41 42 43 44 47 49 51 53 53 54 53 52 54 56 59 60 63 68 72 76 77 80 83 82 79 71 69 66 64 62 61 57 52 48 46 44 44 43 41 40 40 41 42 44 45 48 48 49 51 50 52 55 56 58
38 38 39 44 46 46 47 47 46 47 48 50 50 52 55 56 60 63 66 70 77 82 82 79 76 73 70 68 65 60 60 59 54 49 45 42 41 41 42 42 42 42 42 44 46 48 48 48 50 53 54 56 59 62
33 36 37 40 42 44 43 41 40 40 42 43 46 47 50 53 54 58 62 71 73 70 69 69 69 69 71 68 66 63 62 56 51 46 42 41 37 39 40 40 42 43 44 45 47 47 50 54 55 57 59 62 64 66
30 31 32 33 35 38 38 38 39 38 39 39 43 46 46 46 48 53 62 64 63 63 64 66 65 67 68 67 65 62 62 58 53 43 38 38 39 42 43 42 44 45 46 49 50 52 53 55 58 60 63 65 68 70
19 22 24 26 31 34 34 35 35 37 37 37 37 39 40 42 44 50 53 55 55 57 59 60 61 62 62 63 61 60 58 52 49 42 35 40 43 46 44 44 46 47 49 51 52 54 56 58 61 63 66 68 70 74
19 21 23 25 27 30 32 31 31 30 22 16 16 20 22 26 35 41 46 48 49 47 46 50 54 55 51 45 38 41 44 45 39 35 38 43 49 46 46 48 49 50 51 52 54 56 58 61 63 65 66 71 74 76
24 21 21 20 18 21 25 30 32 31 28 14 11 14 21 22 20 22 31 38 41 38 36 36 38 34 31 28 29 29 31 33 36 39 43 48 49 50 52 51 52 53 54 55 56 58 60 62 64 66 69 73 74 73
25 23 22 19 21 19 16 16 22 27 30 29 20 23 28 28 27 22 13 20 26 29 30 29 29 33 29 28 30 29 29 34 39 45 46 49 52 53 54 53 52 54 55 56 58 59 61 63 66 69 71 72 67 59
18 25 24 20 18 17 19 23 19 21 24 21 23 20 29 29 24 18 17 16 17 19 19 21 28 30 25 27 30 33 37 40 44 47 49 50 52 53 53 53 54 54 55 56 58 60 63 66 68 70 70 60 51 51
4 8 15 21 23 22 20 15 19 24 21 21 20 18 17 18 19 19 18 19 20 20 19 15 16 20 25 30 34 36 38 41 43 45 47 50 51 52 52 52 52 54 55 58 61 64 65 67 68 62 50 47 48 43
6 7 7 10 14 18 22 24 28 27 25 25 22 20 17 14 14 15 16 16 14 13 15 18 22 25 28 31 34 37 40 42 44 46 47 47 47 47 49 52 54 56 60 62 63 64 64 62 49 45 47 47 41 38
8 6 7 10 12 14 17 20 22 24 25 26 27 26 24 22 23 22 22 22 22 23 24 25 27 30 32 34 37 39 40 39 40 41 43 45 47 49 52 55 58 60 61 62 62 56 44 43 43 45 42 35 35 38
19 19 17 16 17 18 16 16 16 17 19 21 22 22 22 21 22 23 23 23 24 24 25 26 28 30 32 34 34 35 37 39 41 43 45 49 53 55 57 58 59 60 58 49 39 41 42 42 40 34 31 33 33 35
26 26 26 26 26 25 25 26 24 22 20 20 20 21 21 22 22 23 23 23 24 24 26 28 29 31 33 35 37 39 41 43 46 49 51 52 53 53 52 49 45 40 38 40 39 37 36 32 28 28 28 28 29 29
Wind_Direction
221 228 230 228 226 229 230 231 234 233 236 236 239 241 247 250 250 256 260 265 274 276 289 304 311 309 311 312 299 304 305 324 326 278 246 192 139 134 130 147 153 160 172 184 194 202 209 224 234 238 241 246 251 254
217 222 229 230 231 229 229 233 232 232 236 236 238 244 247 249 251 253 258 260 265 269 272 282 291 296 288 293 301 282 262 273 276 284 280 265 246 243 238 233 235 238 236 245 245 246 247 245 248 252 256 260 263 266
215 219 221 225 230 231 228 231 229 229 234 237 241 242 246 250 249 249 249 257 260 264 268 275 273 280 280 275 278 285 271 248 251 259 265 271 271 267 254 248 247 254 256 257 259 259 261 263 264 266 267 269 271 273
213 216 219 222 228 230 230 230 232 233 233 236 240 243 243 247 253 249 249 250 255 258 264 269 266 267 271 271 260 264 264 268 252 240 243 253 260 260 258 264 266 264 272 271 275 276 280 278 278 277 277 278 280 281
208 216 215 218 225 231 232 234 234 234 236 237 238 239 243 246 252 254 253 251 249 249 255 259 260 259 260 260 258 254 255 259 258 261 252 248 252 253 256 255 255 267 267 266 268 271 272 273 274 275 276 277 279 281
216 210 217 215 220 228 233 235 238 239 238 237 239 240 243 247 249 253 253 251 251 253 253 254 257 255 255 257 256 259 262 262 256 252 253 257 256 253 251 262 266 266 265 266 269 271 273 274 278 282 285 287 287 287
233 218 213 218 217 223 230 234 236 240 241 241 241 242 243 246 250 250 250 250 251 253 257 254 249 251 253 253 253 254 256 258 261 261 260 257 255 250 248 256 262 268 272 273 272 275 279 279 280 283 284 284 286 287
233 237 227 218 218 217 223 231 235 237 240 242 243 242 243 243 247 247 248 246 248 253 255 255 253 251 254 256 256 260 263 265 266 261 258 260 260 256 248 251 261 268 271 274 278 280 280 281 281 282 283 284 285 286
224 229 235 231 223 219 220 225 231 235 238 240 241 241 241 243 245 246 248 250 248 250 253 256 262 265 260 261 264 264 263 261 261 262 261 260 264 269 263 264 267 269 273 276 279 280 282 284 285 287 288 289 289 290
223 223 227 233 234 224 222 221 222 229 233 235 236 237 243 246 245 247 249 250 251 254 256 259 262 263 262 263 262 264 264 265 267 267 266 265 268 273 271 271 273 273 274 276 278 281 284 287 289 289 290 290 290 288
223 223 223 225 229 237 228 221 220 218 226 223 226 235 241 244 244 246 249 250 251 253 258 261 259 259 261 262 263 264 266 268 269 271 272 273 276 276 278 277 277 279 282 285 288 288 289 290 291 291 290 289 288 288
225 223 223 223 224 226 230 230 225 224 221 216 222 228 233 238 237 238 245 250 254 256 257 262 265 263 262 263 263 264 267 268 269 273 275 277 286 282 280 281 283 283 284 285 286 288 289 289 289 289 290 289 289 289
226 225 223 223 222 224 224 223 232 227 226 221 215 217 227 233 235 239 246 250 252 259 267 268 266 264 263 264 264 266 266 268 270 271 276 287 283 283 285 287 287 287 287 287 289 289 289 288 286 285 286 287 289 291
224 225 225 223 223 223 223 223 223 224 228 223 224 221 223 228 233 240 247 252 252 250 257 254 254 255 255 259 262 266 268 272 275 279 285 277 279 282 284 285 287 287 288 288 287 285 284 285 287 289 292 294 295 297
224 225 225 225 224 224 224 223 223 224 224 223 219 225 227 225 224 227 234 241 244 250 254 249 249 251 252 257 260 265 270 275 281 287 276 278 279 280 282 283 284 288 290 288 285 285 287 290 294 296 297 297 299 299
223 224 225 226 227 226 225 225 224 224 225 225 224 222 229 234 235 237 240 239 244 251 244 244 246 248 253 258 263 267 270 277 287 277 278 279 278 279 278 280 286 289 287 285 286 290 293 297 298 298 298 299 298 297
224 222 225 226 227 227 227 228 228 228 227 227 228 229 228 232 233 234 231 235 240 241 239 242 244 246 250 255 263 271 279 282 277 275 274 273 274 277 279 284 287 287 287 289 293 295 299 300 300 299 299 300 302 300
222 222 225 227 228 229 229 229 231 231 232 231 230 231 234 234 232 233 234 238 243 247 247 249 247 244 248 259 272 276 272 274 272 272 272 273 274 276 281 284 285 288 289 293 293 296 298 299 301 302 302 302 301 300
223 224 226 228 230 230 231 232 234 235 235 233 233 232 232 233 234 235 237 237 239 244 250 252 252 250 257 264 267 267 268 267 267 271 272 272 272 274 277 281 282 286 291 292 293 295 296 300 302 302 301 301 301 301
224 225 226 229 232 233 234 235 236 237 235 235 234 234 233 232 230 232 234 236 238 241 244 247 251 253 256 259 260 260 262 263 264 267 265 266 267 272 277 281 284 290 293 293 291 292 294 298 299 299 300 300 303 305
220 222 223 228 233 234 236 237 237 237 237 235 234 236 236 234 233 233 234 236 237 239 241 244 248 252 254 254 256 258 257 259 263 263 265 263 273 274 278 282 286 291 291 290 289 292 296 296 297 299 302 304 304 305
220 223 227 232 235 236 237 238 238 238 237 236 236 236 236 236 234 235 237 238 239 241 243 244 245 248 249 252 254 255 257 256 259 265 262 268 275 279 285 285 290 289 287 287 289 293 294 295 299 302 303 303 304 304
224 227 230 232 236 238 238 238 238 238 238 236 237 238 237 237 237 237 238 239 240 241 243 244 244 245 248 250 252 249 252 256 253 261 264 272 277 283 285 286 287 286 284 285 288 291 294 298 300 301 302 304 304 306
217 219 224 227 233 239 240 238 236 237 237 240 242 243 242 243 245 248 248 243 242 242 243 244 245 246 247 247 249 250 251 254 251 258 263 263 271 278 281 282 282 283 283 285 288 292 295 297 299 301 302 304 305 307
203 214 228 233 230 233 235 235 233 223 220 224 239 236 233 249 253 250 245 242 244 246 250 249 248 244 249 245 247 251 252 250 254 265 261 259 267 278 278 276 278 279 283 287 289 292 294 297 299 302 304 305 307 309
203 213 229 243 250 241 236 240 225 216 218 215 216 269 275 281 292 287 255 248 244 244 244 242 242 232 224 225 228 236 243 250 260 266 262 262 270 273 271 272 276 279 284 287 289 292 295 298 301 303 306 306 309 312
213 222 226 241 260 270 277 263 255 252 251 239 265 280 281 280 283 289 260 241 228 216 205 201 206 210 220 233 239 237 245 254 260 260 263 268 269 268 269 273 278 281 284 287 291 295 298 300 302 304 305 309 313 310
230 233 236 239 243 247 247 244 251 259 250 260 264 285 277 267 258 223 219 210 205 211 218 230 237 232 232 233 241 250 256 258 260 264 265 264 264 266 271 276 278 282 288 292 295 296 299 302 303 305 310 311 310 310
182 215 224 227 229 222 220 232 226 224 232 239 243 242 249 248 248 244 234 230 222 226 234 238 240 237 238 244 250 252 252 253 254 257 259 261 266 270 275 281 286 289 291 294 297 300 301 302 305 309 309 307 311 311
167 172 203 214 212 214 217 223 225 227 232 241 235 229 242 258 250 243 247 256 258 258 254 247 240 236 237 240 245 249 251 254 257 260 264 269 276 281 284 286 288 292 295 298 298 298 302 305 307 309 307 309 307 308
258 258 225 213 223 225 219 215 216 219 220 219 219 221 222 221 222 227 230 230 234 237 239 242 244 246 247 249 251 254 258 263 269 274 277 279 281 283 286 289 292 294 295 295 298 301 302 306 305 304 304 302 304 306
243 250 252 246 230 222 220 222 221 221 223 225 225 225 223 220 218 223 227 230 234 238 242 245 250 254 258 260 264 267 269 271 273 277 280 282 284 287 291 292 292 293 294 298 300 302 303 299 300 299 301 304 303 305
240 242 242 242 243 242 237 235 234 237 239 242 244 245 245 244 244 243 244 247 250 253 255 257 259 261 263 265 268 270 274 277 279 281 283 285 287 289 291 291 292 295 298 299 298 293 291 293 297 301 303 303 306 308